[[{"header":{"parameterUnit":"m.s-1","parameterCategory":1,"la1":30.2991,"la2":30.254,"lo1":-89.0895,"lo2":-89.0444,"dy":0.0017,"dx":0.0017,"nx":28,"ny":28,"refTime":"2024-02-29T09:00:00:Z","depth":0,"parameterNumber":2,"parameterNumberName":"U-component_of_WINDS"},"data":[0,0,0,0,0,0,0,0,0,0,0,0,0,0,0,0,0,0,0,0,0,0,0,0,0,0,0,0,0,0,0,0,0,0,0,0,0,0,0,0,0,0,0,0,0,0,0,0,0,0,0,0,0,0,0,0,0,0,0.4303,0.4304,0,0.4336,0.4336,0.4337,0.4347,0.4347,0.4346,0.4346,0.4381,0.4382,0.4383,0,0,0,0,0,0,0,0,0,0,0,0,0,0.4252,0.4253,0.4303,0.4304,0.4304,0.4336,0.4336,0.4337,0.4347,0.4347,0.4346,0.4346,0.4381,0.4382,0.4383,0,0,0,0,0,0,0,0,0,0,0,0,0,0.4279,0.4254,0.4303,0.4313,0.4314,0.4336,0.4336,0.4337,0.4347,0.4347,0.4346,0.4346,0.438,0.4382,0.4383,0.4398,0,0,0.4388,0.4389,0,0,0,0,0,0,0,0,0.4277,0.4281,0.4311,0.4312,0.4314,0.4337,0.4331,0.4358,0.4347,0.4335,0.4346,0.4346,0.4367,0.4369,0.4376,0.44,0.4401,0.4388,0.4389,0.439,0.439,0,0,0,0,0,0,0,0.4275,0.4279,0.4316,0.4312,0.4313,0.4317,0.432,0.4336,0.4352,0.4336,0.4336,0.434,0.4367,0.4374,0.4377,0.4402,0.4388,0.439,0.4391,0.4391,0.4442,0.4442,0,0,0,0,0,0,0.4272,0.4278,0.4315,0.4317,0.4294,0.4318,0.4322,0.433,0.4351,0.4354,0.434,0.434,0.4372,0.4375,0.4378,0.4398,0.439,0.4392,0.4392,0.4441,0.4442,0.4442,0,0,0,0,0,0,0.4271,0.4275,0.4314,0.4298,0.4303,0.4319,0.4328,0.4331,0.4338,0.4355,0.4358,0.4344,0.4372,0.4376,0.4394,0.4399,0.4392,0.4394,0.4441,0.4441,0.4442,0.4437,0,0,0,0,0,0,0.4269,0.4274,0.4279,0.4298,0.4304,0.4328,0.4328,0.4331,0.434,0.4341,0.436,0.4363,0.4372,0.4391,0.4395,0.4401,0.4395,0.444,0.4441,0.4442,0.4437,0.4438,0.4438,0,0,0,0,0,0.4267,0.4277,0.428,0.4284,0.431,0.4328,0.4332,0.4342,0.4341,0.4346,0.4358,0.4362,0.4398,0.4393,0.4397,0.4404,0.444,0.4441,0.4442,0.4437,0.4437,0.4438,0,0,0,0,0,0,0.4258,0.4279,0.4283,0.4298,0.4311,0.433,0.4337,0.4342,0.4356,0.4356,0.4368,0.4373,0.439,0.4399,0.4392,0.4421,0.442,0.4421,0.4414,0.4415,0.4415,0.4413,0.4396,0,0,0,0,0,0.4258,0.427,0.4288,0.43,0.4307,0.4321,0.4329,0.4336,0.435,0.4356,0.4368,0.4383,0.4398,0.4407,0.4421,0.4439,0.4444,0.4446,0.4447,0.4447,0.4448,0.446,0.4462,0.4445,0.4445,0.4445,0,0,0.4258,0.4271,0.4277,0.4299,0.431,0.4323,0.4325,0.4339,0.4349,0.4358,0.4375,0.4385,0.4402,0.442,0.4429,0.4429,0.4455,0.4448,0.4448,0.4449,0.4461,0.4463,0.4464,0.4446,0.4445,0.4445,0,0,0.4264,0.4275,0.4286,0.4298,0.4315,0.4324,0.4327,0.4346,0.4353,0.437,0.4378,0.4391,0.4416,0.4428,0.4438,0.4451,0.4456,0.4456,0.4459,0.447,0.4471,0.4473,0.4478,0.448,0.4457,0.4457,0.4457,0,0.4261,0.4281,0.4292,0.4305,0.4315,0.4324,0.4337,0.4348,0.4369,0.4376,0.4375,0.4408,0.442,0.4442,0.4446,0.4453,0.4457,0.4453,0.447,0.4472,0.4473,0.4479,0.4481,0.4457,0.4457,0.4457,0.4457,0,0.4278,0.4291,0.4299,0.4319,0.433,0.4343,0.4357,0.4367,0.4374,0.4384,0.4403,0.4418,0.4437,0.4443,0.4449,0.4466,0.4466,0.4468,0.4466,0.4474,0.448,0.4482,0.4457,0.4457,0.4457,0.4457,0,0,0.4277,0.4305,0.4307,0.4317,0.4338,0.4349,0.4364,0.4382,0.4391,0.4405,0.4419,0.4441,0.4443,0.4454,0.4462,0.4472,0.4484,0.4473,0.4474,0.4475,0.4505,0.4504,0.4506,0.4488,0.4488,0.4488,0.4504,0,0.4286,0.4311,0.4323,0.4344,0.4357,0.4368,0.4381,0.4395,0.4406,0.442,0.4432,0.4448,0.445,0.4457,0.4467,0.448,0.449,0.4479,0.4501,0.4502,0.4496,0.4509,0.4506,0.452,0.4506,0.4507,0.4507,0,0.4299,0.4315,0.4337,0.4357,0.4363,0.4375,0.4393,0.4406,0.4424,0.4431,0.4445,0.4453,0.447,0.4469,0.4493,0.4486,0.4496,0.4504,0.4505,0.4507,0.4504,0.4511,0.4525,0.4527,0.451,0.451,0.451,0,0.4298,0.4324,0.4341,0.4349,0.4373,0.4381,0.4392,0.4409,0.442,0.4437,0.4445,0.4463,0.4473,0.4488,0.4502,0.45,0.4526,0.4525,0.4534,0.4533,0.4538,0.4538,0.4554,0.4545,0.4545,0.4545,0.4545,0,0.4306,0.432,0.434,0.4351,0.4367,0.4381,0.4396,0.4408,0.4424,0.4438,0.4448,0.4461,0.4479,0.4495,0.4506,0.4526,0.453,0.4537,0.454,0.4536,0.4535,0.4543,0.4542,0.4545,0.4545,0.4545,0.4545,0,0.4306,0.4321,0.434,0.4362,0.4368,0.4379,0.4398,0.441,0.4422,0.4439,0.4444,0.4464,0.4483,0.4499,0.4524,0.4532,0.4552,0.4555,0.4546,0.4547,0.4555,0.4554,0.4576,0.458,0.4568,0.4569,0.4569,0,0.4311,0.4321,0.4345,0.4355,0.4365,0.4381,0.4393,0.4408,0.4419,0.4442,0.4451,0.4471,0.4488,0.4519,0.4535,0.4555,0.4559,0.4566,0.4562,0.4559,0.456,0.4559,0.4561,0.4566,0.4566,0.4566,0.4566,0,0.4317,0.4325,0.434,0.4359,0.4372,0.4388,0.4404,0.4412,0.443,0.4443,0.4463,0.4476,0.4503,0.4523,0.4545,0.4558,0.4565,0.4567,0.457,0.4566,0.456,0.4564,0.4547,0.4566,0.4566,0.4566,0.4566,0.4566,0.432,0.4331,0.4349,0.4367,0.4381,0.4396,0.4408,0.4422,0.4439,0.4461,0.447,0.449,0.451,0.4541,0.4554,0.4571,0.4572,0.4576,0.4577,0.4578,0.4578,0.4558,0.4575,0.4575,0.4575,0.4575,0.4575,0,0.4328,0.434,0.4357,0.4379,0.4393,0.44,0.4418,0.443,0.4448,0.4466,0.4482,0.4506,0.4527,0.4546,0.4568,0.4579,0.4583,0.4584,0.4583,0.4586,0.4576,0.4571,0.458,0.458,0.458,0.458,0.458,0.458,0.4333,0.4351,0.4361,0.4387,0.4401,0.442,0.4431,0.4446,0.446,0.4486,0.4503,0.4515,0.4535,0.4558,0.4578,0.4583,0.4591,0.4591,0.4598,0.4587,0.4587,0.4586,0.4582,0.4593,0.4593,0.4607,0.4607,0.4607]},{"header":{"parameterUnit":"m.s-1","parameterCategory":1,"la1":30.2991,"la2":30.254,"lo1":-89.0895,"lo2":-89.0444,"dy":0.0017,"dx":0.0017,"nx":28,"ny":28,"refTime":"2024-02-29T09:00:00:Z","depth":0,"parameterNumber":3,"parameterNumberName":"V-component_of_WINDS"},"data":[0,0,0,0,0,0,0,0,0,0,0,0,0,0,0,0,0,0,0,0,0,0,0,0,0,0,0,0,0,0,0,0,0,0,0,0,0,0,0,0,0,0,0,0,0,0,0,0,0,0,0,0,0,0,0,0,0,0,-1.8222,-1.8222,0,-1.823,-1.823,-1.823,-1.8229,-1.8229,-1.8228,-1.8228,-1.8235,-1.8235,-1.8235,0,0,0,0,0,0,0,0,0,0,0,0,0,-1.8207,-1.8207,-1.8222,-1.8222,-1.8222,-1.823,-1.823,-1.823,-1.8229,-1.8229,-1.8228,-1.8228,-1.8235,-1.8235,-1.8235,0,0,0,0,0,0,0,0,0,0,0,0,0,-1.8214,-1.8207,-1.8222,-1.8223,-1.8223,-1.823,-1.823,-1.823,-1.8229,-1.8229,-1.8228,-1.8228,-1.8235,-1.8235,-1.8236,-1.8242,0,0,-1.8237,-1.8237,0,0,0,0,0,0,0,0,-1.8213,-1.8214,-1.8223,-1.8223,-1.8223,-1.8228,-1.8227,-1.8234,-1.8229,-1.8227,-1.8228,-1.8228,-1.8233,-1.8233,-1.8235,-1.8242,-1.8242,-1.8237,-1.8237,-1.8237,-1.8237,0,0,0,0,0,0,0,-1.8213,-1.8214,-1.8225,-1.8223,-1.8223,-1.8222,-1.8223,-1.8228,-1.823,-1.8227,-1.8227,-1.8228,-1.8233,-1.8235,-1.8235,-1.8242,-1.8237,-1.8237,-1.8238,-1.8238,-1.8255,-1.8255,0,0,0,0,0,0,-1.8212,-1.8213,-1.8225,-1.8225,-1.8218,-1.8223,-1.8224,-1.8227,-1.823,-1.8231,-1.8228,-1.8228,-1.8234,-1.8235,-1.8235,-1.8243,-1.8237,-1.8238,-1.8238,-1.8255,-1.8255,-1.8255,0,0,0,0,0,0,-1.8212,-1.8213,-1.8225,-1.8219,-1.8221,-1.8223,-1.8227,-1.8227,-1.8229,-1.8231,-1.8232,-1.8229,-1.8234,-1.8235,-1.824,-1.8243,-1.8238,-1.8238,-1.8254,-1.8255,-1.8255,-1.8258,0,0,0,0,0,0,-1.8211,-1.8213,-1.8216,-1.8219,-1.8221,-1.823,-1.8227,-1.8227,-1.823,-1.8229,-1.8233,-1.8233,-1.8234,-1.824,-1.8241,-1.8243,-1.8239,-1.8254,-1.8255,-1.8255,-1.8257,-1.8258,-1.8259,0,0,0,0,0,-1.8211,-1.8216,-1.8216,-1.8217,-1.8224,-1.823,-1.8231,-1.8232,-1.823,-1.8232,-1.8234,-1.8233,-1.8243,-1.824,-1.8241,-1.8244,-1.8254,-1.8254,-1.8255,-1.8257,-1.8258,-1.8259,0,0,0,0,0,0,-1.8212,-1.8216,-1.8216,-1.8223,-1.8226,-1.823,-1.8233,-1.8232,-1.8236,-1.8235,-1.8236,-1.8237,-1.8242,-1.8244,-1.8241,-1.8251,-1.8248,-1.8249,-1.8249,-1.825,-1.8251,-1.825,-1.8239,0,0,0,0,0,-1.8213,-1.8217,-1.8221,-1.8226,-1.8228,-1.823,-1.8232,-1.8233,-1.8236,-1.8237,-1.8239,-1.8242,-1.8246,-1.8248,-1.8252,-1.8258,-1.8258,-1.826,-1.8261,-1.8262,-1.8262,-1.8265,-1.8266,-1.8257,-1.8257,-1.8257,0,0,-1.8215,-1.8218,-1.8221,-1.8227,-1.8229,-1.8233,-1.8231,-1.8236,-1.8238,-1.8238,-1.8243,-1.8245,-1.8248,-1.8254,-1.8256,-1.8255,-1.8265,-1.8262,-1.8262,-1.8263,-1.8266,-1.8267,-1.8267,-1.8257,-1.8257,-1.8257,0,0,-1.8221,-1.8224,-1.8229,-1.8231,-1.8235,-1.8237,-1.8238,-1.8242,-1.8243,-1.8248,-1.8248,-1.8251,-1.8257,-1.826,-1.8262,-1.8269,-1.8268,-1.827,-1.8273,-1.8276,-1.8277,-1.8277,-1.828,-1.8281,-1.827,-1.827,-1.827,0,-1.8223,-1.8229,-1.8231,-1.8236,-1.8238,-1.8238,-1.8243,-1.8245,-1.825,-1.8251,-1.825,-1.8258,-1.826,-1.8267,-1.8268,-1.827,-1.8271,-1.8269,-1.8277,-1.8277,-1.8278,-1.828,-1.8281,-1.8271,-1.8271,-1.8271,-1.827,0,-1.8232,-1.8236,-1.8239,-1.8244,-1.8247,-1.8252,-1.8254,-1.8257,-1.8257,-1.8259,-1.8264,-1.8267,-1.8271,-1.8272,-1.8272,-1.8279,-1.8278,-1.8277,-1.8274,-1.8279,-1.8281,-1.8282,-1.8271,-1.8271,-1.8271,-1.8271,0,0,-1.8238,-1.8244,-1.8245,-1.8247,-1.8252,-1.8255,-1.826,-1.8264,-1.8266,-1.827,-1.8273,-1.8279,-1.8278,-1.828,-1.8281,-1.8283,-1.8289,-1.8282,-1.8282,-1.8283,-1.8295,-1.8296,-1.8297,-1.8288,-1.8288,-1.8289,-1.8295,0,-1.8244,-1.8252,-1.8254,-1.8261,-1.8265,-1.8265,-1.8269,-1.8272,-1.8274,-1.8277,-1.8279,-1.8283,-1.8282,-1.8283,-1.8286,-1.8287,-1.8291,-1.8287,-1.8291,-1.8291,-1.829,-1.8298,-1.8298,-1.8304,-1.8295,-1.8296,-1.8296,0,-1.8252,-1.8256,-1.8264,-1.8268,-1.8269,-1.8273,-1.8277,-1.828,-1.8284,-1.8285,-1.8288,-1.8288,-1.8292,-1.829,-1.8296,-1.8293,-1.8295,-1.8296,-1.8296,-1.8296,-1.8294,-1.8298,-1.8306,-1.8306,-1.8297,-1.8297,-1.8297,0,-1.8255,-1.8263,-1.8268,-1.827,-1.8275,-1.8278,-1.828,-1.8283,-1.8285,-1.8289,-1.8291,-1.8294,-1.8296,-1.8299,-1.8301,-1.8299,-1.8306,-1.8304,-1.8307,-1.8307,-1.8308,-1.8308,-1.8316,-1.831,-1.831,-1.831,-1.831,0,-1.8262,-1.8266,-1.827,-1.8273,-1.8278,-1.828,-1.8285,-1.8287,-1.829,-1.8293,-1.8294,-1.8297,-1.8299,-1.8302,-1.8303,-1.8308,-1.8309,-1.8309,-1.831,-1.8309,-1.8309,-1.831,-1.831,-1.831,-1.831,-1.831,-1.831,0,-1.8266,-1.8269,-1.8275,-1.8279,-1.8281,-1.8284,-1.8288,-1.8291,-1.8292,-1.8297,-1.8298,-1.8301,-1.8305,-1.8306,-1.8311,-1.8312,-1.8317,-1.8317,-1.8316,-1.8316,-1.8319,-1.8318,-1.8328,-1.8329,-1.8322,-1.8322,-1.8322,0,-1.827,-1.8274,-1.8279,-1.8281,-1.8283,-1.8288,-1.829,-1.8292,-1.8295,-1.8299,-1.8302,-1.8306,-1.8309,-1.8316,-1.8318,-1.8321,-1.8321,-1.8324,-1.8322,-1.8321,-1.8321,-1.8321,-1.8321,-1.8325,-1.8325,-1.8325,-1.8325,0,-1.8276,-1.8277,-1.8282,-1.8286,-1.8289,-1.8293,-1.8296,-1.8298,-1.8301,-1.8304,-1.8308,-1.8311,-1.8316,-1.832,-1.8324,-1.8326,-1.8325,-1.8326,-1.8327,-1.8326,-1.8325,-1.8325,-1.8317,-1.8325,-1.8325,-1.8325,-1.8325,-1.8325,-1.828,-1.8284,-1.8288,-1.8292,-1.8295,-1.8298,-1.8301,-1.8304,-1.8308,-1.8312,-1.8313,-1.8318,-1.8321,-1.8326,-1.8328,-1.8331,-1.8331,-1.8332,-1.8332,-1.8332,-1.8332,-1.8325,-1.8332,-1.8332,-1.8332,-1.8332,-1.8332,0,-1.8286,-1.8289,-1.8293,-1.8298,-1.8302,-1.8302,-1.8306,-1.8308,-1.8313,-1.8316,-1.8319,-1.8324,-1.8328,-1.8331,-1.8335,-1.8337,-1.8337,-1.8338,-1.8337,-1.8338,-1.8333,-1.8332,-1.8338,-1.8338,-1.8338,-1.8338,-1.8338,-1.8338,-1.829,-1.8295,-1.8297,-1.8304,-1.8306,-1.8311,-1.8313,-1.8316,-1.8319,-1.8324,-1.8328,-1.833,-1.8333,-1.8337,-1.834,-1.8341,-1.8342,-1.8343,-1.8344,-1.8339,-1.8338,-1.8338,-1.8336,-1.8343,-1.8343,-1.8348,-1.8348,-1.8348]}]]